Tracking 22879 objects as of 21-Apr-2021
HD Live streaming from Space Station
objects crossing your sky now

COSMOS 1287

Track COSMOS 1287 now!
10-day predictions
COSMOS 1287 is classified as:


NORAD ID: 12636
Int'l Code: 1981-074A
Perigee: 1,470.9 km
Apogee: 1,520.1 km
Inclination: 74.0 °
Period: 115.7 minutes
Semi major axis: 7866 km
RCS: 0.667 m2 (medium)
Launch date: August 6, 1981
Source: Commonwealth of Independent States (former USSR) (CIS)
Launch site: PLESETSK MISSILE AND SPACE COMPLEX (PKMTR)
aabbcc
Your satellite tracking list
Your tracking list is empty




NASA's NSSDC Master Catalog

Two Line Element Set (TLE):
1 12636U 81074A   21110.57855062 -.00000018  00000-0 -19258-4 0  9991
2 12636  74.0322 159.9535 0031286 291.5978  68.1737 12.44318887804118
Source of the keplerian elements: AFSPC